Theta_e
287 287 287 287 287 287 288 288 288 289 289 289 290 290 291 292 293 293 295 297 298 298 297 297 296 294 293 292 291 292 291 291 290 290 290 290 291 292 292 292 294 294 295 296 296 297 298 298 299 300 302 302 301 301 303 302 302 302 302 300 300 300 298 296 296 296 297 301 300 301 300 299 296 296 296 296 296 296 296 296 297 296 297 297 298
286 286 286 286 286 287 287 287 288 287 287 288 288 289 290 291 291 292 293 294 295 295 295 295 295 294 292 290 290 289 289 288 287 288 288 289 289 289 289 290 291 292 293 294 294 295 295 295 296 297 298 298 298 299 299 298 299 300 301 301 300 299 298 296 297 299 299 294 296 298 298 299 299 295 295 297 297 297 296 296 296 296 296 297 296
285 285 285 285 285 286 286 286 286 286 287 287 288 289 289 289 290 291 292 293 294 294 294 293 293 293 292 291 289 287 288 288 288 287 288 287 287 288 288 288 288 289 290 291 291 292 293 293 293 294 295 296 296 296 296 296 297 298 298 297 298 300 299 298 297 297 295 297 297 295 295 296 301 299 296 297 298 298 295 295 295 296 296 296 295
284 284 284 284 284 285 285 285 285 286 286 286 287 287 288 288 289 289 290 291 292 293 293 292 291 290 290 290 289 288 286 287 287 287 287 287 286 287 287 287 287 287 288 288 289 289 290 290 291 291 292 293 294 293 293 294 295 295 296 296 298 296 296 296 297 296 295 294 294 294 294 291 294 295 293 296 297 293 293 296 295 295 295 295 295
283 284 284 283 284 284 284 285 285 285 285 285 286 286 287 287 288 288 288 289 290 291 292 292 291 289 289 288 288 287 287 286 286 285 286 286 286 286 286 287 287 287 287 287 287 287 288 288 289 289 289 290 291 291 291 292 293 294 294 295 295 295 295 295 296 296 296 296 293 292 293 293 293 292 292 296 293 298 298 297 295 295 296 295 295
283 283 283 283 283 283 284 284 284 284 284 285 285 285 286 287 287 287 288 288 288 289 289 289 289 288 287 286 284 284 283 283 283 283 284 284 284 285 286 286 286 286 286 287 287 287 287 287 287 287 288 288 289 289 290 290 291 291 292 293 293 294 294 294 293 295 296 296 296 294 292 289 288 290 291 291 296 297 296 294 295 296 294 295 294
283 283 283 283 283 283 283 283 283 284 284 284 285 284 285 286 286 286 287 287 288 287 288 287 286 285 285 284 284 284 283 283 284 285 284 284 285 284 285 285 286 285 286 286 286 286 286 286 286 287 287 287 287 287 287 288 289 290 291 291 291 292 293 291 291 292 295 295 295 295 295 294 292 290 289 289 289 293 294 296 297 298 295 294 295
282 282 283 282 282 282 282 282 283 283 283 284 284 284 284 284 285 285 286 286 286 287 286 287 285 285 285 284 284 284 283 283 284 284 285 285 284 284 285 285 285 285 285 285 285 286 286 285 286 286 286 286 286 286 286 287 288 288 289 289 290 290 291 290 290 291 290 291 293 293 293 294 294 293 293 289 288 286 289 296 294 295 295 296 295
282 283 282 283 282 282 282 282 282 283 283 283 283 283 284 284 284 284 284 284 285 286 286 286 286 285 285 284 283 284 284 284 284 285 284 284 284 284 284 284 284 285 285 285 285 285 285 285 285 285 285 285 285 285 285 286 286 286 286 287 287 287 288 289 289 288 289 289 290 290 292 292 292 293 292 291 288 287 288 290 290 293 294 295 295
283 282 282 282 282 282 282 282 282 282 282 283 283 283 283 284 284 283 283 284 284 284 285 285 285 285 284 284 283 283 283 283 284 283 283 284 283 283 284 283 284 284 284 284 284 284 284 284 284 284 284 284 284 284 284 284 285 285 285 286 286 286 286 287 287 287 288 288 289 289 288 289 290 290 291 290 290 290 287 287 289 288 287 291 294
282 282 282 282 281 281 281 282 282 282 282 282 283 283 283 283 283 283 283 283 284 284 284 284 284 284 284 284 283 283 283 283 283 282 283 283 282 283 283 283 284 284 284 284 284 284 284 284 284 284 284 284 284 283 283 283 284 284 284 285 285 284 284 285 286 286 287 286 287 287 287 287 287 286 287 288 288 287 287 287 288 289 288 287 291
282 282 282 281 281 282 282 281 282 282 282 282 282 283 283 283 283 282 282 283 283 284 284 284 284 284 284 284 283 283 283 283 282 282 282 282 282 282 283 283 282 283 283 283 283 283 283 283 283 283 283 283 283 283 283 283 283 283 283 283 283 284 284 284 284 284 285 285 286 286 286 287 287 287 287 288 287 287 287 286 286 287 287 288 290
282 282 282 281 281 281 281 281 281 282 282 282 282 282 282 282 283 282 282 282 283 283 283 283 284 283 283 283 283 283 283 283 282 282 282 282 282 282 282 282 282 282 282 282 282 283 283 282 282 282 282 282 282 282 282 283 283 282 282 282 282 282 282 283 282 283 283 283 283 285 285 286 285 287 287 287 287 287 286 284 286 288 285 286 288
282 282 281 281 281 281 281 281 281 281 281 282 282 282 282 282 282 282 281 282 282 283 283 283 283 283 283 283 283 283 283 283 283 282 282 282 282 282 281 281 281 281 281 281 282 282 282 282 282 282 282 282 282 282 282 282 282 281 282 281 281 282 282 282 282 282 282 283 283 282 283 284 284 285 285 286 286 285 284 284 284 285 286 284 287
282 281 282 281 281 281 281 281 281 281 281 282 282 282 282 282 282 282 281 281 282 282 282 282 282 283 283 283 283 283 283 283 282 283 282 282 282 281 281 281 281 281 281 281 282 282 282 282 282 282 282 282 282 282 282 281 282 281 281 281 281 282 281 281 281 281 281 281 282 282 282 282 283 283 284 284 285 285 284 284 283 281 282 284 283
281 282 281 281 281 281 281 281 281 281 281 282 281 282 282 282 281 282 281 281 282 282 282 282 282 282 282 282 282 283 283 282 282 282 281 282 281 281 280 281 281 281 281 281 281 281 280 280 281 280 281 281 281 281 280 280 281 280 280 280 280 281 280 280 280 280 280 281 281 281 281 281 282 282 283 283 284 284 284 284 284 283 281 278 282
282 281 282 281 281 281 281 281 281 281 281 281 282 282 282 282 281 281 281 281 281 281 281 281 281 281 281 281 281 281 281 281 281 280 280 281 281 280 280 280 280 280 280 280 279 280 280 279 279 279 279 279 279 279 279 279 279 279 279 279 279 280 280 280 280 280 280 280 280 280 280 280 281 282 282 282 282 283 283 284 284 283 282 280 279
282 282 282 281 281 281 281 281 281 281 281 281 281 281 281 282 282 281 281 281 281 281 281 281 281 281 280 280 280 280 280 280 280 280 280 280 280 280 280 279 279 279 279 279 279 278 279 279 278 278 278 278 278 278 278 278 278 278 278 278 278 279 278 279 279 279 279 280 280 280 280 280 280 280 280 281 281 281 281 282 282 283 283 281 280
281 281 281 280 281 281 281 281 281 281 281 281 281 281 281 281 281 282 282 282 281 282 281 281 281 282 281 281 280 280 280 280 280 280 280 279 279 279 279 278 279 279 278 278 278 278 278 278 278 277 277 277 277 277 278 277 277 277 277 277 278 278 277 277 278 278 278 279 278 278 279 279 279 279 280 280 280 281 281 281 281 282 282 282 281
281 281 281 281 281 281 281 281 281 281 281 281 281 281 281 281 282 281 282 281 282 282 282 281 281 281 280 280 280 280 280 279 279 279 278 278 278 278 278 278 278 278 278 278 277 277 277 277 277 277 276 276 276 276 277 276 276 276 276 276 277 277 276 276 277 277 278 278 277 277 277 278 278 278 279 279 279 280 280 280 280 280 281 281 281
282 282 281 281 281 281 281 281 281 281 282 281 281 281 282 282 281 282 281 281 281 281 281 281 280 280 280 279 279 279 278 278 278 278 278 278 278 278 278 278 278 277 277 277 276 276 276 276 276 276 275 275 275 275 276 276 276 275 276 276 276 276 275 276 276 276 277 277 277 276 276 277 278 277 278 278 278 279 279 279 280 280 279 280 280
282 282 281 281 281 281 281 282 282 282 282 281 281 281 281 281 281 281 280 280 280 280 281 280 280 279 279 278 278 278 278 278 277 277 277 277 277 277 277 277 276 276 276 275 275 275 275 275 274 274 274 274 275 275 275 275 274 274 274 275 275 275 275 275 275 275 276 276 276 276 276 277 277 277 277 277 278 278 278 278 278 279 278 279 280
283 282 281 281 281 281 281 282 282 282 282 281 281 281 281 280 280 280 280 280 281 281 280 280 279 278 277 277 277 277 277 277 277 276 276 276 276 276 276 275 274 274 275 275 274 274 274 274 273 273 274 274 274 273 273 273 273 273 273 273 274 274 274 273 274 274 274 275 275 275 275 276 277 276 276 277 277 277 278 277 277 278 278 278 279
282 282 281 281 281 281 281 281 281 281 281 281 281 281 281 280 281 281 281 281 280 280 279 279 278 277 277 277 277 277 276 276 276 276 275 275 275 275 274 273 273 273 273 273 273 273 273 273 272 272 272 272 272 272 272 272 272 272 272 272 272 273 273 273 273 273 274 274 274 274 274 274 274 274 275 275 276 276 276 276 276 277 277 277 278
281 281 281 280 280 280 281 282 282 282 282 282 282 282 282 281 280 280 280 280 279 279 279 278 278 277 277 277 276 276 276 275 275 275 274 274 273 273 273 272 272 272 272 272 272 272 272 271 271 271 271 271 271 271 271 271 271 272 271 272 272 272 273 273 273 273 273 273 273 273 273 273 273 273 273 274 274 274 275 275 275 275 276 277 277
282 281 280 280 280 281 281 282 282 283 283 283 283 283 282 281 280 280 279 279 279 279 278 278 277 277 276 276 276 275 275 275 274 274 273 273 272 272 271 271 271 270 271 271 270 270 271 270 270 270 270 270 270 270 270 270 270 271 271 272 272 272 272 272 273 273 273 273 272 272 273 273 273 272 272 273 274 274 274 274 275 275 276 277 277
281 281 280 280 280 281 281 282 283 283 283 284 283 282 282 281 280 280 279 279 279 278 278 278 277 277 276 276 275 275 275 274 273 273 272 271 271 270 270 269 270 269 269 269 269 269 269 269 269 269 269 269 269 269 269 269 269 270 271 272 272 272 272 272 272 273 273 273 273 273 273 273 273 273 273 273 273 274 274 274 275 275 276 276 276
281 281 280 280 281 281 282 282 283 283 283 283 282 282 282 281 281 280 279 279 279 278 277 277 277 276 276 275 275 274 274 273 272 272 271 270 269 269 268 268 268 268 268 268 267 267 268 268 268 267 268 268 268 268 268 268 269 271 272 272 272 272 272 272 272 273 273 273 273 272 273 273 273 273 273 273 274 273 274 274 274 275 275 274 274
281 282 282 282 282 282 282 282 282 283 282 282 282 282 281 281 281 280 279 279 279 278 277 276 276 275 275 275 274 273 273 272 271 270 269 268 268 268 267 267 267 267 267 267 267 267 266 266 266 267 267 267 267 267 267 268 271 272 272 272 272 272 272 272 272 272 272 272 272 272 272 273 273 274 275 275 275 275 273 272 273 274 274 274 274
282 282 282 282 282 282 281 281 281 282 282 281 281 282 281 280 280 279 279 279 278 278 276 276 275 274 274 273 272 272 271 270 269 268 267 267 267 266 266 266 266 266 266 266 266 266 266 265 265 266 266 266 266 266 267 271 273 273 273 272 272 272 272 272 271 271 271 272 272 272 272 273 273 273 273 274 274 275 275 274 273 273 272 272 271
282 282 281 281 281 281 281 281 281 281 281 282 282 282 281 280 280 278 278 277 278 277 276 276 275 273 272 271 270 270 269 268 268 267 266 266 266 265 265 264 264 264 264 265 265 265 265 265 265 265 265 265 265 266 269 272 273 274 274 273 272 272 272 272 271 271 270 271 271 271 271 271 271 271 270 272 274 274 274 275 275 275 275 272 271
282 282 281 281 281 281 281 281 281 281 282 282 281 281 280 279 279 278 277 276 276 276 275 274 273 272 271 270 269 268 267 267 266 265 265 264 264 263 263 263 263 263 264 264 264 264 264 264 264 264 264 264 265 267 270 272 273 274 275 273 272 272 272 272 271 271 270 269 269 269 269 269 269 270 270 270 271 273 273 274 274 274 275 275 276
282 282 282 282 281 281 281 281 281 281 281 282 282 281 280 279 278 277 275 275 275 275 274 272 271 270 269 268 267 266 266 265 264 264 264 263 262 263 262 262 262 263 263 263 263 263 263 263 263 263 263 263 264 266 269 271 273 274 274 274 272 272 271 271 270 269 269 268 268 268 268 269 269 271 270 270 270 270 272 273 273 273 274 274 274
282 282 282 282 282 282 282 282 281 282 282 282 281 281 280 279 277 275 274 274 274 273 272 271 269 269 268 267 266 265 265 264 263 263 263 262 262 262 262 262 262 262 262 262 262 262 262 262 262 262 262 263 263 265 269 272 273 273 274 274 272 271 271 269 269 268 268 268 268 268 268 268 269 269 269 269 270 269 270 270 270 271 271 272 274
281 281 281 281 281 281 281 280 280 281 280 279 279 279 277 275 275 274 274 273 272 272 270 270 268 268 267 266 266 264 264 263 263 262 262 262 261 261 262 262 261 262 262 261 261 261 261 261 261 261 261 261 262 267 269 271 272 273 274 274 271 270 269 269 269 269 269 268 268 268 268 268 269 269 269 270 270 270 270 270 270 270 271 271 272
281 282 281 280 280 280 280 280 280 279 279 279 279 277 276 275 273 274 272 272 271 270 269 268 267 266 266 265 264 263 263 263 262 261 261 262 261 261 261 261 261 261 261 261 261 261 260 260 260 260 260 260 261 266 268 270 272 273 274 271 270 269 269 269 269 269 269 269 269 269 269 269 269 269 271 274 274 272 272 271 271 271 271 272 272
281 281 281 281 280 280 280 279 278 278 278 278 277 275 275 272 272 271 270 270 269 269 269 268 267 266 265 265 265 263 262 262 261 261 260 260 261 260 260 260 259 260 260 260 259 259 260 260 259 259 259 260 260 263 268 270 271 273 272 269 269 269 269 268 269 269 269 270 270 270 270 269 270 270 272 275 276 276 272 272 272 271 272 272 272
280 279 279 279 278 278 278 278 277 277 277 276 274 274 273 272 271 269 269 269 269 269 269 267 266 265 265 264 264 262 261 261 260 259 260 262 260 260 259 259 259 259 259 259 259 258 259 259 259 258 259 259 260 263 268 269 271 272 272 269 269 268 268 269 269 270 270 270 270 271 272 271 271 271 274 276 277 276 273 273 273 272 272 272 272
279 279 279 278 277 277 276 276 276 276 275 274 273 272 272 271 270 269 269 269 269 269 268 267 266 265 264 263 262 262 262 260 260 261 259 259 259 259 259 258 258 258 258 258 258 258 258 258 258 258 260 261 260 261 266 268 270 271 271 270 270 269 268 269 269 269 270 270 270 271 273 273 273 274 277 278 278 276 274 274 273 272 272 271 273
277 277 277 277 275 274 274 274 274 276 273 272 271 272 272 271 269 269 268 269 270 269 268 267 266 264 263 262 262 261 260 259 260 259 258 258 258 257 257 258 257 257 257 257 257 257 256 257 258 258 258 259 259 260 261 268 270 271 272 270 270 269 269 269 269 269 269 270 270 270 272 275 276 277 277 278 278 278 275 274 274 273 272 271 274
276 275 278 274 275 276 276 276 276 274 271 271 271 271 271 270 269 268 269 271 270 268 266 265 264 263 262 261 261 260 259 258 259 258 259 257 257 259 258 257 256 256 256 256 256 256 257 257 258 259 259 259 259 260 261 268 270 271 272 272 270 270 270 270 270 270 271 271 271 272 272 275 277 277 277 278 279 279 278 276 275 274 274 275 277
274 275 275 274 273 273 273 272 272 271 270 270 271 271 272 269 268 268 271 270 267 266 265 263 263 262 261 260 258 258 258 257 256 256 256 256 256 256 256 256 256 256 255 255 256 256 256 257 258 258 258 259 260 262 262 266 270 271 273 274 272 272 273 272 271 271 271 271 272 272 272 274 277 277 278 278 278 278 278 276 276 278 279 278 276
273 273 274 274 273 273 273 274 271 269 269 269 270 271 270 268 268 271 270 266 265 264 264 263 262 260 259 258 257 256 256 255 255 256 255 255 255 254 254 254 254 254 254 254 255 256 256 256 257 258 259 259 260 261 265 266 270 272 274 274 275 274 276 274 272 271 272 272 273 273 273 275 277 278 278 278 279 279 278 276 278 279 279 278 277
273 274 274 273 274 274 274 272 269 269 268 269 270 271 270 268 270 271 266 264 263 263 262 261 260 259 258 257 255 254 254 254 255 255 254 254 254 254 254 253 254 254 255 255 256 256 256 256 256 257 258 260 261 263 265 269 270 272 274 275 275 276 276 274 274 273 273 272 272 272 274 277 277 277 277 277 277 277 275 277 277 277 277 276 272
274 273 272 272 274 274 273 271 269 268 268 268 269 271 270 269 271 266 265 263 262 261 261 260 259 257 256 255 253 253 253 252 253 254 254 254 254 251 254 254 254 254 255 254 255 254 255 255 256 257 259 261 263 265 266 268 271 272 273 274 275 276 276 277 273 272 272 272 274 276 276 275 275 275 275 275 274 273 274 275 275 275 273 270 269
271 270 271 272 272 270 269 271 269 267 267 267 268 270 270 271 268 265 264 263 261 260 260 259 257 256 256 254 254 253 252 253 253 253 254 254 254 254 255 254 254 255 254 253 255 255 255 255 256 258 261 263 265 266 267 268 269 270 271 273 274 275 275 275 274 272 273 274 274 274 274 273 272 272 270 269 269 269 272 273 272 271 269 268 268
271 273 270 269 268 270 270 270 270 267 266 266 266 267 270 265 263 264 263 261 260 261 260 258 257 256 254 253 255 255 254 253 252 253 253 254 254 254 253 255 255 254 254 254 254 255 255 256 257 259 262 264 265 265 267 268 268 269 269 271 272 273 273 273 271 270 270 270 269 269 268 270 269 270 269 269 268 268 267 267 267 267 267 267 267
272 271 269 268 269 271 271 270 271 270 267 266 265 266 265 262 263 263 261 260 260 260 260 258 256 255 255 254 255 256 256 254 254 253 254 253 253 254 254 254 254 254 254 254 254 255 256 257 259 261 262 263 263 265 267 267 268 269 271 272 273 271 271 270 269 269 268 265 263 265 264 263 263 263 263 263 264 264 264 264 264 264 264 265 265
272 270 269 271 271 270 271 271 272 271 267 265 265 264 263 262 262 261 260 261 261 260 258 256 255 254 254 254 254 254 255 255 255 254 254 255 255 254 254 255 255 256 256 256 256 257 259 259 260 261 262 262 265 267 267 271 271 273 272 272 271 271 271 269 270 271 264 261 260 260 260 260 260 260 260 261 261 261 261 262 261 262 263 263 263
271 270 269 270 270 271 271 271 272 270 267 265 264 263 262 262 261 261 261 262 261 259 257 257 256 255 254 254 255 254 254 255 254 254 252 253 257 262 259 256 257 261 265 266 265 260 261 262 262 263 264 266 267 268 272 273 273 273 274 274 273 273 273 270 271 269 264 258 258 258 258 258 259 259 259 259 259 259 259 260 260 262 261 261 262
271 268 267 268 270 269 270 270 271 268 266 265 264 263 261 261 261 261 261 262 260 259 258 258 256 256 256 256 255 255 255 254 254 254 253 254 254 257 263 267 267 267 268 269 270 271 272 272 269 268 270 272 272 272 272 272 273 273 274 273 273 272 271 270 270 264 259 257 257 257 257 258 258 258 258 258 259 258 259 259 259 260 261 261 262
Wind_Speed
4 4 5 7 8 7 7 6 7 6 9 9 9 11 11 9 8 12 8 7 6 6 6 5 8 9 10 11 10 8 9 9 11 10 10 10 10 11 11 11 11 11 11 11 10 10 9 8 9 8 7 7 9 9 7 8 8 6 4 4 6 7 5 6 5 4 4 4 2 3 4 1 3 3 3 3 3 3 2 3 2 2 3 4 2
4 6 8 8 8 10 8 7 8 10 10 9 10 9 9 9 11 8 7 7 8 8 7 9 7 7 10 8 9 8 8 10 9 9 9 8 10 11 11 10 11 11 10 10 11 10 10 9 10 9 8 8 9 9 9 9 10 7 5 6 5 6 4 4 5 5 4 5 7 7 3 3 2 2 1 1 2 3 3 2 2 2 4 2 2
5 6 8 7 9 8 7 6 7 6 6 8 5 7 10 10 9 7 7 8 8 6 7 8 7 7 9 7 8 10 8 8 8 7 8 10 11 11 11 11 11 11 11 11 10 10 10 9 9 8 10 9 9 10 10 10 9 10 9 7 6 5 3 3 6 6 5 6 5 4 3 6 2 1 1 4 6 2 2 2 2 3 3 2 2
7 6 6 6 6 5 6 7 7 5 6 6 7 9 7 8 8 8 8 8 7 7 9 9 11 11 11 10 9 9 8 7 9 8 10 12 13 11 11 10 11 11 11 11 10 10 10 10 9 9 9 9 7 8 9 10 9 9 9 9 6 7 6 7 6 6 4 7 7 5 6 3 6 3 8 9 5 3 1 1 1 3 2 2 2
5 5 5 6 6 7 7 6 6 7 7 7 7 6 6 8 8 8 7 8 6 6 6 6 7 9 8 9 7 8 8 8 9 11 10 9 9 12 11 10 11 11 11 12 10 11 10 10 9 9 9 9 8 9 9 9 9 9 9 8 9 5 6 5 7 7 7 6 4 6 4 3 5 8 11 8 2 4 5 4 3 2 2 2 2
3 3 3 4 4 6 7 7 7 6 7 7 5 5 7 7 7 8 7 6 6 7 5 4 5 6 6 7 9 9 10 9 10 8 8 9 10 7 10 11 10 11 11 11 11 10 11 10 10 10 9 9 9 8 8 8 10 10 9 8 9 9 4 6 7 8 6 8 7 3 1 3 8 9 7 8 4 6 5 2 3 3 2 3 2
3 2 3 4 5 5 6 6 6 7 6 5 5 6 6 7 7 7 7 6 6 7 6 5 8 8 10 11 9 9 10 7 5 5 6 6 7 9 9 10 10 11 11 10 10 10 10 9 9 9 9 9 8 8 9 9 8 8 8 9 8 7 8 8 8 7 4 6 7 6 6 3 3 5 6 8 12 2 1 4 5 5 3 3 4
3 2 2 2 3 3 4 4 4 5 5 5 6 6 8 8 8 8 7 7 7 6 8 6 9 8 10 10 9 10 10 8 6 6 6 5 8 8 7 8 9 10 10 10 10 10 9 10 9 9 9 9 8 9 9 8 7 7 8 7 7 8 8 7 7 7 7 7 7 6 6 5 5 4 5 6 7 11 12 1 2 3 4 6 6
3 3 3 2 2 3 3 4 4 5 5 5 5 5 6 7 8 8 9 8 7 8 8 8 8 8 8 8 12 8 8 7 6 5 6 5 9 7 8 7 8 9 9 9 9 10 9 9 9 10 9 9 8 8 8 9 10 10 10 10 9 8 8 6 6 7 7 6 7 7 6 7 6 3 2 3 6 10 12 10 12 7 7 5 5
3 2 1 1 1 2 2 1 4 4 4 4 5 5 6 7 8 10 10 7 6 8 8 10 9 7 9 9 11 8 7 6 6 7 7 6 9 8 7 7 7 8 8 9 9 9 9 8 8 9 9 8 8 8 8 9 9 9 9 9 9 9 7 7 7 6 5 5 6 5 6 6 5 5 4 8 5 4 9 13 12 15 16 5 6
5 4 2 2 1 1 2 4 3 4 4 5 5 6 6 8 8 13 9 7 7 8 8 9 8 7 9 9 10 10 8 7 7 7 6 7 8 7 7 6 6 7 7 8 8 8 8 8 8 8 8 7 8 8 8 8 7 7 6 7 9 9 7 8 8 7 5 6 6 6 5 5 5 5 7 6 5 6 9 9 10 10 11 16 5
5 5 5 3 4 4 4 5 5 4 5 6 5 5 6 7 8 13 9 8 7 7 9 9 8 9 9 9 9 8 8 7 9 8 6 7 6 7 5 6 7 6 7 7 8 8 7 7 7 7 8 8 8 7 7 7 6 6 6 6 6 7 7 6 6 7 8 6 6 6 5 4 4 4 5 6 6 7 7 10 9 11 9 6 7
6 6 5 5 6 6 5 5 5 5 5 6 6 5 6 7 8 13 9 7 7 7 10 9 9 9 8 8 8 6 7 8 7 8 5 7 6 7 7 7 7 8 8 8 8 9 7 8 9 8 7 7 6 6 6 7 7 6 6 7 7 7 7 6 6 7 6 6 6 6 5 5 5 5 5 5 6 6 6 9 8 7 10 13 9
7 6 6 6 6 6 5 5 5 5 5 5 5 6 6 7 7 12 9 7 7 8 9 10 9 8 7 7 7 6 7 7 6 7 5 6 6 7 6 6 6 6 6 7 5 6 6 6 6 6 6 6 6 6 7 6 6 6 6 6 7 5 5 6 5 5 5 5 5 5 6 5 5 6 6 6 6 6 7 7 10 8 9 12 9
7 7 7 8 7 6 6 5 5 5 5 5 5 6 6 7 8 11 11 7 8 8 8 10 8 8 8 7 7 6 7 6 6 5 5 6 5 6 6 5 6 5 6 5 5 5 5 5 6 6 6 6 6 6 6 6 5 5 5 5 5 4 5 4 5 5 6 7 6 5 6 6 6 5 6 6 6 6 7 8 8 12 10 7 10
8 8 7 7 6 6 6 5 5 5 6 5 6 6 7 7 7 9 10 8 8 8 8 8 8 7 7 8 7 6 6 5 5 4 4 5 5 6 6 5 5 5 4 4 4 4 4 5 5 5 5 4 5 5 5 6 5 5 5 5 6 4 5 6 5 5 6 7 6 6 5 6 6 6 6 6 6 6 7 7 7 7 9 14 9
8 8 8 8 7 6 6 6 6 6 6 6 7 6 8 8 9 9 8 7 7 8 8 7 7 8 7 7 7 7 6 7 6 6 6 5 5 5 6 5 4 4 4 3 4 4 4 4 4 4 5 5 5 5 5 5 5 5 5 6 6 5 5 6 6 6 6 6 5 7 6 7 7 7 7 6 7 7 6 7 6 7 8 10 11
8 8 7 8 8 8 7 6 6 7 7 7 7 6 5 6 8 11 9 10 7 7 7 7 8 8 7 7 5 5 5 6 6 6 5 6 5 5 4 5 5 4 3 3 4 5 5 5 6 6 6 6 7 6 6 6 6 5 5 5 5 5 5 4 5 5 6 6 6 6 6 6 6 7 7 8 7 8 8 7 7 7 7 9 10
9 10 8 8 8 8 8 8 7 7 6 6 6 6 6 6 6 7 10 9 9 7 6 6 6 6 5 5 6 5 5 6 5 5 4 6 6 5 5 5 4 4 5 5 6 6 6 7 6 7 7 7 7 7 7 6 7 6 6 5 5 6 6 6 5 6 6 6 7 8 7 7 7 8 8 7 7 7 7 8 8 7 8 8 10
10 10 9 9 10 9 9 10 9 9 8 7 7 6 7 7 7 7 6 6 7 7 7 7 6 6 6 5 5 5 5 6 5 5 5 6 5 5 5 6 6 5 6 6 6 6 6 6 6 6 6 6 6 6 6 6 6 5 6 6 7 8 8 8 7 6 5 6 8 8 8 7 8 8 8 8 8 7 8 8 8 8 9 8 9
12 11 10 10 10 9 9 7 6 6 6 6 7 8 8 7 7 8 10 9 8 7 7 7 7 6 7 7 6 6 6 4 5 5 6 6 5 5 6 5 5 6 5 6 6 6 6 5 5 6 6 6 6 7 6 6 6 6 6 6 7 8 8 8 8 8 7 8 8 9 9 8 8 9 8 8 8 9 9 9 8 8 9 8 8
11 11 10 10 10 10 7 5 6 6 7 8 8 7 7 8 8 8 7 8 9 7 7 7 6 6 8 7 6 4 4 4 6 6 7 6 6 6 5 5 6 5 4 4 5 4 4 4 4 5 5 5 6 6 7 6 6 7 7 5 6 8 8 8 8 9 9 8 9 10 10 10 9 9 10 10 9 10 9 10 10 9 9 10 7
10 9 9 9 10 9 9 10 10 9 8 8 8 8 8 9 9 8 9 9 8 8 7 7 7 8 7 6 5 4 4 7 7 6 7 6 5 5 4 4 4 3 3 4 4 4 4 4 4 5 5 5 6 6 6 6 6 7 7 7 7 8 9 9 10 10 10 10 10 10 11 11 9 11 11 10 10 10 9 10 11 10 11 11 10
6 7 7 8 7 8 8 9 9 8 9 10 8 8 8 8 9 8 9 9 8 7 8 8 8 7 6 6 5 5 7 6 6 5 6 5 4 4 4 4 3 3 3 4 4 4 4 4 4 4 5 5 5 6 5 6 6 7 7 8 8 8 8 8 9 9 10 10 11 11 11 12 12 12 12 11 10 10 10 10 12 11 11 12 11
9 11 10 8 9 11 11 10 10 10 9 8 9 9 9 9 9 9 8 8 7 7 7 7 8 8 5 6 6 5 6 6 6 5 6 5 4 3 3 4 3 3 3 3 3 3 3 4 4 5 5 5 5 6 6 6 6 6 7 7 7 7 8 8 8 9 9 10 10 10 11 11 12 12 12 10 10 13 12 11 12 11 11 11 11
12 9 10 13 12 9 10 11 10 10 10 10 9 9 9 8 9 8 8 7 7 6 7 8 8 8 7 7 6 5 6 6 6 5 5 4 4 3 3 3 3 2 3 3 3 3 3 4 4 4 4 5 5 5 6 6 6 6 6 7 7 7 7 8 8 9 9 9 9 10 10 10 11 11 12 12 12 14 13 13 14 13 12 12 13
13 12 9 7 8 14 14 12 11 11 10 9 10 9 9 9 9 8 7 8 8 7 7 8 7 8 7 6 5 5 5 5 5 5 4 4 3 3 2 2 2 2 3 3 3 3 3 3 4 4 4 5 5 5 5 6 6 7 7 7 8 8 9 8 8 9 10 10 10 10 10 11 11 11 12 12 13 14 12 14 13 13 12 13 13
6 9 12 15 14 11 11 13 13 11 10 9 8 9 10 10 10 8 8 7 7 7 8 7 8 7 7 6 5 5 5 5 5 5 4 3 3 2 2 2 2 3 3 3 3 3 3 3 3 3 4 4 5 5 5 5 6 7 8 8 8 9 9 9 9 9 10 10 10 10 10 10 10 10 11 12 13 13 12 13 12 12 13 13 13
12 14 14 14 14 15 14 12 12 11 12 11 9 9 8 8 8 8 8 9 8 8 8 8 7 8 6 6 5 5 5 5 5 4 3 3 2 2 2 2 2 2 2 3 3 3 3 3 3 3 4 4 4 4 4 5 7 8 8 9 9 9 10 10 10 10 10 10 11 10 10 10 12 16 20 18 17 17 13 13 13 12 13 13 13
14 13 13 12 12 10 10 10 10 12 12 11 10 10 10 10 9 8 9 8 8 8 9 8 8 7 6 6 6 5 5 4 4 4 3 3 2 2 2 2 2 2 2 2 2 2 3 3 4 3 4 3 4 3 6 12 11 9 9 8 9 9 9 10 10 11 11 11 11 10 11 16 18 19 19 20 19 19 19 15 14 13 13 13 13
10 9 9 9 8 8 9 11 12 12 13 13 13 11 10 9 9 9 9 8 8 8 8 9 8 7 7 6 5 5 4 4 4 3 3 2 2 1 1 1 1 1 2 2 2 2 3 3 3 4 4 4 4 4 11 12 12 13 10 9 9 9 9 10 10 11 11 11 11 11 11 13 14 15 14 18 18 19 19 19 20 20 17 14 13
10 10 8 8 10 11 12 14 14 15 15 14 12 11 10 11 9 10 8 8 8 8 9 8 8 8 6 6 5 5 5 4 4 3 3 3 2 2 1 1 0 1 1 1 2 2 3 3 3 4 4 5 5 8 12 13 13 13 12 9 8 8 8 9 10 10 10 11 12 11 11 10 10 12 13 14 16 18 19 19 19 19 18 18 18
9 10 11 12 13 13 14 14 13 13 13 14 13 11 12 12 11 8 8 8 8 8 8 9 8 9 8 6 6 5 4 4 3 4 3 3 3 2 1 1 1 1 1 2 2 3 3 3 4 4 5 6 6 9 13 14 13 14 14 12 8 8 8 8 9 10 11 11 10 11 11 10 10 16 14 13 13 14 17 20 19 19 18 18 18
6 8 10 10 9 9 10 12 13 13 14 12 10 13 11 8 8 8 10 9 9 8 8 8 8 8 8 7 7 6 5 5 4 4 3 3 3 2 1 0 0 1 1 2 2 3 3 4 4 5 5 6 7 9 14 14 14 14 14 13 8 8 8 9 10 10 10 11 11 12 12 12 11 12 13 14 14 14 14 14 13 13 14 16 20
8 8 9 9 10 10 9 8 10 11 9 8 8 7 7 8 9 10 8 10 8 9 8 9 8 7 7 5 6 6 6 5 4 4 3 3 2 1 0 0 1 2 2 2 3 3 4 4 4 5 5 6 6 12 13 15 15 15 15 13 8 8 8 8 9 10 10 11 12 12 13 13 13 13 13 16 17 17 15 13 13 12 13 14 14
8 9 8 9 10 11 12 13 8 7 8 9 10 8 10 9 8 10 9 8 8 8 8 8 8 8 8 7 7 6 5 5 4 4 3 2 1 1 0 1 1 1 1 2 2 2 4 5 5 5 6 7 7 13 14 15 16 15 16 9 7 8 8 9 9 10 11 11 11 12 12 14 15 14 17 24 22 19 16 14 15 14 13 12 13
5 5 7 5 5 6 6 4 6 8 9 10 8 9 9 9 9 6 8 7 7 8 9 9 8 9 9 7 6 6 6 5 4 4 3 2 2 1 1 1 1 2 2 2 2 3 3 5 5 5 6 7 7 10 14 16 16 17 13 8 8 8 8 9 11 11 11 11 12 13 14 14 14 15 19 24 25 24 16 15 15 15 12 10 12
4 2 4 3 3 3 4 7 8 8 8 7 9 10 10 9 9 8 8 9 8 10 9 9 10 8 8 8 5 6 6 5 5 5 4 3 2 1 1 1 2 2 3 2 2 3 3 4 5 6 5 7 6 10 15 16 16 16 14 9 8 8 10 10 10 12 12 13 14 20 20 17 17 17 23 25 27 23 16 15 15 15 16 15 14
6 6 6 4 3 4 5 5 7 9 7 8 9 10 10 9 9 10 8 9 10 10 10 11 9 9 8 7 6 5 6 6 5 5 5 3 2 2 1 1 2 2 3 2 2 3 3 3 4 6 9 9 7 9 15 16 17 16 13 9 9 9 9 9 8 10 11 11 11 12 21 20 19 21 28 27 28 24 17 15 16 16 14 12 13
6 4 3 3 5 6 5 6 9 10 8 10 9 10 10 10 10 9 9 11 13 13 10 8 8 9 8 6 6 6 6 6 6 5 4 3 2 1 1 1 1 1 2 2 3 3 5 4 4 5 5 6 7 6 9 17 16 16 16 10 9 9 10 10 10 9 9 10 9 10 12 20 26 26 26 28 27 29 20 15 12 11 12 15 11
6 6 5 5 6 8 10 12 9 8 10 9 9 9 9 9 10 9 12 15 10 8 9 9 9 8 7 6 5 6 6 5 4 5 3 2 2 1 1 1 2 2 2 3 4 4 4 4 3 5 5 6 5 7 8 16 16 16 16 14 9 9 10 10 8 8 8 10 10 8 9 17 25 26 27 29 29 30 28 18 13 12 13 16 19
2 6 7 6 6 6 4 3 4 9 9 10 10 11 10 10 9 12 16 8 9 9 9 8 8 8 7 6 6 4 4 5 4 5 4 2 1 1 1 2 1 2 4 5 4 3 4 4 3 4 4 6 7 11 9 13 16 16 15 17 11 10 11 11 13 12 14 11 10 9 7 16 28 28 28 29 30 29 29 17 14 22 28 28 19
4 4 6 8 7 8 10 9 6 9 9 9 11 12 10 10 11 18 9 9 9 9 9 8 8 8 7 7 6 6 5 4 4 5 4 2 1 1 2 2 3 3 4 5 5 4 4 4 3 2 4 5 6 7 13 12 15 15 16 16 18 15 19 13 12 10 9 10 10 11 14 24 27 27 27 28 27 29 24 17 26 26 26 29 22
5 6 8 8 9 8 8 6 7 8 9 9 12 12 11 11 17 9 8 8 8 8 9 9 8 8 7 7 6 5 6 5 5 4 3 2 2 3 3 3 3 3 3 4 3 3 3 4 4 4 3 4 6 6 9 13 12 15 16 18 18 19 19 12 11 12 12 13 13 14 15 28 28 27 27 26 26 25 18 25 25 25 25 21 11
7 7 5 7 11 11 10 7 8 9 9 10 10 13 13 15 13 8 10 11 10 10 10 9 9 8 8 7 6 5 5 5 5 5 4 3 3 3 3 3 3 2 2 4 4 2 3 4 5 5 5 5 6 6 6 9 14 15 17 18 19 20 19 19 13 10 13 13 19 26 27 25 25 25 25 23 18 18 21 22 24 23 21 10 10
3 3 7 10 8 5 5 9 8 8 9 9 10 10 14 18 7 9 9 10 11 11 10 10 9 8 8 8 7 6 4 5 5 4 4 4 4 4 3 3 2 3 3 3 4 3 3 4 5 5 6 6 6 6 6 7 8 11 12 17 20 19 17 19 19 15 20 24 23 23 25 23 20 18 14 11 11 12 18 20 20 18 10 9 9
7 10 6 4 5 7 9 10 11 10 10 10 11 11 11 4 9 9 9 9 11 11 10 9 10 8 7 7 7 6 4 4 3 3 4 3 4 3 3 3 3 3 3 4 4 3 3 4 4 5 6 6 6 7 6 7 8 7 8 9 10 7 14 17 11 11 14 12 15 17 16 19 16 19 17 15 13 13 11 10 9 10 10 10 10
8 5 5 5 6 9 10 10 12 11 10 10 10 11 8 5 6 9 10 10 10 11 11 10 9 8 7 7 6 4 5 4 4 5 4 4 4 4 5 6 6 5 4 5 4 4 4 4 5 5 6 6 7 6 6 8 7 7 7 8 6 6 9 6 8 10 8 9 10 12 13 10 10 9 9 8 8 8 9 9 9 10 10 11 13
5 7 8 10 10 11 12 11 13 8 8 9 11 9 7 8 8 9 11 12 11 9 7 7 7 7 6 5 5 5 5 5 4 4 4 5 5 5 7 6 6 4 5 6 5 6 7 6 5 6 7 7 6 6 6 10 10 14 12 10 7 8 8 5 11 13 8 6 7 8 7 8 8 9 10 9 9 10 9 9 9 10 9 10 10
7 5 7 9 10 11 12 12 13 7 9 11 11 9 8 8 8 10 11 12 11 9 8 8 7 7 6 6 6 5 5 6 5 6 4 4 8 12 9 7 7 11 16 17 14 8 8 7 8 8 8 8 5 5 12 16 15 16 17 16 15 16 15 12 14 12 8 4 5 6 6 7 8 8 9 9 10 10 11 12 10 13 11 10 10
7 5 6 9 11 10 10 10 11 7 9 9 9 9 9 9 9 10 11 10 11 9 7 7 8 8 8 8 7 7 6 5 5 4 3 3 4 5 11 15 15 13 14 15 16 19 19 17 11 8 7 13 15 15 15 14 15 15 15 15 15 14 15 14 13 7 6 3 5 7 7 7 6 7 7 8 8 9 10 11 12 12 10 10 11
Wind_Direction
321 335 4 4 4 2 358 360 0 18 23 15 32 32 31 24 27 35 9 7 36 65 55 60 78 86 65 62 72 55 53 54 52 44 48 46 39 42 42 40 38 41 38 39 41 49 48 42 41 36 39 41 41 44 33 31 27 23 3 22 21 21 19 357 346 327 325 328 304 291 301 224 274 265 293 344 294 271 257 257 270 306 284 275 275
11 24 12 14 10 3 1 9 5 25 7 11 33 33 38 32 42 25 13 29 39 47 71 67 58 67 91 78 86 66 56 54 55 48 50 50 47 45 46 44 44 45 41 44 47 46 47 44 40 35 32 41 47 41 36 35 30 27 12 29 45 39 23 350 328 330 35 1 325 329 315 321 283 49 354 280 307 272 260 289 331 279 273 293 313
34 29 23 16 5 0 5 9 17 19 7 21 9 45 42 42 37 29 21 31 36 41 63 75 72 65 79 86 79 85 66 70 72 65 56 56 49 44 42 42 43 46 42 44 49 44 46 48 42 39 37 33 41 40 35 36 29 28 25 31 12 37 25 25 8 27 348 329 280 289 351 333 340 41 358 342 312 301 353 299 274 270 295 334 303
38 22 12 3 360 360 9 19 8 8 25 17 14 44 52 51 41 37 31 29 27 35 70 78 83 85 78 83 75 72 83 76 73 59 51 49 46 40 40 39 38 44 39 42 47 47 46 48 45 43 42 37 42 43 36 33 27 27 27 34 29 34 18 17 24 10 17 351 1 351 309 320 314 50 343 311 308 312 285 312 292 305 305 301 292
29 18 8 4 5 9 9 4 356 23 20 16 8 27 52 53 53 54 50 42 29 21 42 81 97 89 92 88 85 90 68 58 58 48 44 49 51 39 35 32 37 41 38 40 42 45 42 43 45 44 45 37 39 42 39 34 29 27 21 29 31 26 33 21 15 9 19 33 11 346 332 328 353 328 331 309 39 355 312 329 322 293 311 318 310
57 14 348 345 5 3 13 10 18 19 23 7 354 17 48 62 60 65 69 62 52 41 39 60 66 87 98 89 76 67 61 44 45 47 43 42 50 49 44 38 38 43 40 39 40 41 42 40 41 42 40 38 36 41 36 32 30 29 22 23 26 20 19 35 19 8 22 36 25 57 178 308 325 324 330 317 308 273 281 308 298 309 307 331 317
59 43 18 35 15 29 22 18 7 28 15 359 4 24 46 64 67 66 67 64 54 56 51 80 84 78 77 79 87 82 93 67 66 59 64 60 61 54 51 44 40 44 41 39 39 40 43 41 41 43 43 41 34 40 38 32 31 30 21 32 28 20 21 42 29 4 359 37 13 13 359 329 303 320 325 318 320 350 160 323 316 304 349 336 309
142 118 35 22 33 28 32 5 12 15 1 8 29 22 48 56 64 64 60 63 53 56 65 48 78 75 85 87 77 77 77 94 79 73 64 66 64 55 52 48 46 44 43 40 36 36 37 40 36 40 44 39 35 38 35 26 30 33 35 33 34 33 28 35 25 19 23 4 1 8 2 354 337 274 260 298 300 309 314 251 205 340 330 297 281
173 133 88 27 20 23 18 28 359 22 21 33 35 40 49 57 66 66 60 57 49 56 72 64 72 76 79 84 85 77 86 86 87 75 71 59 70 55 55 52 51 49 46 45 40 38 37 39 36 38 39 36 35 36 33 29 29 25 20 25 27 30 32 22 33 22 16 15 358 6 358 2 340 348 1 9 321 312 302 323 318 301 278 266 266
182 191 194 119 328 0 333 353 47 25 12 32 46 50 48 64 74 71 60 53 51 59 67 69 70 76 81 77 90 92 87 87 78 69 63 53 66 56 52 52 45 46 44 42 41 39 39 38 41 41 39 38 39 37 31 30 27 28 26 27 25 28 22 26 32 18 18 12 18 355 8 351 353 4 359 343 317 257 295 313 316 322 322 326 325
173 183 190 167 183 288 30 72 40 42 37 50 56 59 68 72 81 73 58 54 52 64 68 73 75 75 85 84 88 93 89 90 84 69 66 57 62 57 54 55 50 50 46 44 44 37 39 39 39 40 40 38 37 34 32 29 26 27 25 30 35 31 20 13 18 18 12 13 14 13 7 3 357 338 330 331 319 307 307 299 306 300 296 307 325
183 173 164 129 108 94 90 99 85 70 71 72 72 71 74 76 88 86 65 60 65 74 78 78 81 79 81 86 87 87 92 86 81 80 66 71 65 66 61 58 48 49 44 41 35 30 34 38 38 38 37 33 35 33 30 25 22 23 25 27 28 29 25 21 18 16 7 2 5 2 353 348 343 342 330 320 317 310 302 296 305 309 293 244 303
186 183 169 175 166 156 145 141 116 105 103 98 96 95 92 90 91 96 82 70 71 74 82 83 83 79 86 88 91 92 89 89 87 83 68 69 64 61 51 50 39 39 32 35 27 22 27 29 29 29 28 29 28 30 27 25 22 25 27 24 22 24 19 12 18 13 5 5 349 343 340 339 338 334 326 319 314 306 299 300 296 306 296 305 314
188 185 187 183 176 170 163 155 142 139 130 126 122 112 110 105 101 97 100 85 90 83 86 90 82 87 89 94 92 93 86 82 80 85 79 76 75 74 67 61 59 52 40 39 21 18 30 31 31 32 32 27 28 28 26 24 20 24 24 21 15 17 12 11 7 360 357 356 346 338 342 334 327 332 326 324 321 322 314 309 308 299 286 293 297
189 189 192 186 182 174 167 163 166 160 158 149 135 127 120 112 112 111 110 103 101 98 97 94 94 90 86 82 86 83 89 86 84 86 91 90 78 81 73 69 65 56 50 35 22 24 23 24 26 25 20 20 16 20 18 16 18 15 22 19 9 10 3 2 359 359 349 347 344 341 330 327 328 327 327 319 319 311 307 310 315 315 307 274 295
189 194 195 192 182 173 169 174 180 174 172 163 151 143 129 124 119 114 116 123 114 110 101 101 99 92 85 91 91 91 94 95 95 89 84 85 89 84 83 74 71 67 63 52 31 40 35 37 34 32 22 20 19 18 15 14 8 8 8 11 5 358 358 354 351 348 340 337 332 327 325 320 323 321 322 317 312 310 305 302 301 296 304 307 309
193 195 192 187 178 179 180 183 180 181 183 177 167 160 146 137 133 125 122 119 121 116 114 109 107 106 97 94 92 93 100 104 107 102 95 88 86 83 82 81 80 66 61 60 46 44 43 46 39 40 34 27 26 25 20 15 9 8 10 0 359 353 350 345 342 340 333 328 328 326 321 316 317 316 313 313 312 309 304 299 292 286 291 289 300
193 196 193 186 180 177 183 193 190 189 186 178 171 165 155 150 148 138 139 137 142 135 131 133 124 111 112 105 104 110 110 103 98 95 89 87 77 76 81 77 63 61 61 52 48 40 37 32 30 27 24 21 20 15 16 10 9 10 5 3 350 344 343 342 339 333 329 325 320 318 315 312 311 310 308 308 306 305 303 301 297 292 283 277 282
194 196 186 183 179 187 187 191 191 194 190 183 169 161 161 160 163 152 148 152 150 148 144 133 126 117 124 128 122 110 100 94 90 91 90 88 84 80 75 76 73 52 48 40 36 32 28 23 23 18 16 15 13 10 6 5 3 0 358 353 350 350 343 339 338 338 329 327 322 319 316 310 313 308 305 304 300 299 300 299 296 292 283 272 279
191 192 190 186 188 187 186 188 191 188 183 182 172 164 171 170 162 158 143 142 146 153 151 139 136 130 123 113 100 101 92 93 91 99 89 82 81 75 72 64 54 48 44 39 37 33 23 21 18 16 12 12 9 6 3 0 355 0 352 351 347 346 343 339 336 337 329 327 321 318 317 315 314 309 304 302 300 299 296 296 295 292 287 280 279
192 189 187 186 183 187 191 186 185 179 177 173 176 179 176 166 167 170 163 165 167 166 155 149 141 134 128 116 107 95 102 104 103 93 87 76 70 62 58 57 49 46 37 35 36 29 22 19 15 13 12 6 5 1 360 355 355 352 351 344 343 344 340 335 333 332 335 330 327 320 317 313 310 307 305 306 304 300 296 290 289 289 286 283 280
193 188 178 180 186 186 175 170 182 176 179 181 188 178 172 178 178 175 172 174 166 170 165 151 150 138 115 109 106 114 122 116 94 76 71 67 57 54 51 50 53 41 43 39 38 28 23 18 16 14 9 5 3 360 354 353 351 349 347 349 343 343 337 333 336 331 335 334 328 323 322 322 319 312 311 307 305 305 301 296 291 287 285 286 281
186 182 183 184 183 178 178 185 187 184 185 188 185 184 182 182 179 184 176 182 176 165 150 148 136 120 117 123 132 127 111 84 80 76 75 70 66 61 55 60 54 49 39 50 32 30 22 20 18 14 9 5 3 357 352 352 349 348 343 342 343 341 339 336 335 331 331 329 326 324 321 323 323 318 314 310 308 304 301 297 295 291 289 285 283
176 183 182 187 178 167 174 189 185 188 194 194 190 187 185 185 187 180 184 176 167 153 152 131 120 119 136 138 118 98 88 91 88 86 86 78 75 72 63 59 53 47 49 36 35 28 26 21 18 17 10 5 359 351 349 350 346 345 342 337 338 337 332 330 326 324 326 327 324 322 320 322 319 313 311 312 309 308 307 303 298 295 290 288 285
184 188 186 171 177 185 189 187 189 194 194 191 191 191 187 190 185 182 183 173 160 155 141 136 134 136 136 113 102 101 103 100 97 95 93 88 80 73 61 55 40 46 39 39 26 28 27 22 19 14 5 4 355 344 345 344 342 342 337 332 328 326 325 322 320 318 319 319 316 313 312 314 313 308 307 307 308 307 304 300 296 296 292 289 286
190 178 170 189 191 187 188 192 192 195 194 192 192 192 194 192 192 185 176 167 166 153 151 144 150 133 120 115 119 116 110 107 106 103 97 90 79 64 61 47 48 37 41 35 34 21 24 17 15 12 1 356 345 341 339 337 336 336 330 325 322 319 318 319 315 315 314 313 310 308 308 309 309 307 306 307 307 305 304 299 298 297 295 293 291
188 182 182 173 191 200 198 190 194 194 193 193 191 193 197 196 197 194 185 171 165 158 158 152 143 129 127 129 130 126 120 115 112 106 101 92 81 72 64 64 36 49 44 38 23 30 14 20 8 6 358 351 339 335 334 334 333 330 325 323 324 324 323 321 319 317 317 315 311 310 308 309 306 305 304 306 308 306 304 301 301 301 298 297 295
165 177 186 197 202 196 192 194 192 194 193 196 194 196 196 196 197 193 183 171 165 161 160 151 140 132 133 137 131 128 118 115 112 107 101 98 92 80 67 56 49 37 41 31 15 13 10 9 5 357 349 339 330 328 329 325 321 324 327 325 324 322 320 317 315 313 314 310 309 307 305 304 304 304 304 304 304 303 303 299 298 297 296 294 293
188 200 200 199 196 197 197 191 191 187 194 197 195 199 202 204 201 189 174 183 168 162 157 149 144 140 144 140 132 118 114 114 113 109 107 103 89 74 61 52 45 37 28 21 7 360 2 1 357 351 342 332 324 323 327 319 324 327 325 320 319 316 314 313 312 310 309 306 305 304 302 301 301 302 300 300 299 299 300 299 300 302 302 301 298
204 204 202 202 202 193 192 189 189 193 195 195 197 199 199 197 197 181 180 179 159 169 154 153 152 147 141 135 123 118 120 121 119 120 114 108 90 77 69 58 38 36 14 6 0 355 2 351 345 338 337 323 313 313 305 315 319 318 318 314 311 309 310 309 308 306 305 305 305 303 301 300 301 302 302 301 300 299 298 297 300 303 303 301 299
210 209 209 202 195 193 188 193 198 196 198 198 200 198 193 195 190 180 184 173 169 160 161 158 152 143 137 130 124 127 126 126 127 122 119 124 119 137 105 94 38 21 357 359 345 352 352 339 340 334 327 321 304 301 309 316 316 315 313 310 307 306 305 304 302 302 302 306 305 304 301 302 300 300 299 298 300 300 300 299 298 298 297 298 300
207 207 198 197 200 199 198 200 200 200 200 199 196 194 186 196 185 183 175 158 165 162 160 160 142 141 140 135 133 134 132 132 136 147 146 148 157 154 136 117 24 2 342 334 339 351 330 336 327 329 319 310 303 304 313 313 312 312 312 309 306 302 301 299 302 304 304 305 303 301 300 298 297 296 297 298 299 298 298 299 299 299 298 298 297
204 199 203 204 202 201 201 204 204 203 201 204 194 182 192 190 182 178 144 162 165 161 153 145 147 142 139 137 139 142 141 146 162 163 156 157 149 148 136 144 14 317 302 330 345 335 327 329 325 323 315 307 296 305 309 310 310 312 311 310 303 299 297 301 304 302 299 298 298 299 300 295 295 296 296 296 295 295 295 296 297 297 297 294 292
211 209 206 210 207 209 210 208 205 205 205 200 185 189 188 170 160 151 161 163 155 155 156 154 151 150 142 146 143 146 152 162 166 159 151 142 132 137 129 229 325 311 328 325 326 325 326 324 322 316 307 301 297 301 308 310 313 311 310 309 301 302 300 298 296 296 297 297 296 297 298 296 295 294 293 295 296 293 292 291 287 282 279 275 275
212 207 208 203 201 203 204 206 211 205 191 165 182 176 146 146 158 161 167 156 161 152 158 156 159 151 148 151 158 155 159 162 159 148 137 133 132 144 202 235 324 320 326 322 323 319 311 311 308 308 303 297 291 306 311 312 312 312 311 315 309 302 293 289 293 295 295 294 293 291 291 291 292 292 288 289 291 290 288 279 271 264 260 261 259
220 210 213 192 195 198 197 208 194 165 176 179 179 160 155 163 158 162 160 161 156 159 162 155 163 168 166 168 161 160 159 155 151 140 125 136 149 177 249 292 288 288 275 288 296 300 303 307 305 302 300 296 296 312 313 313 313 314 316 316 304 295 290 289 291 294 295 294 291 290 288 285 284 279 276 287 290 290 287 279 273 267 260 254 255
235 204 228 213 208 207 203 152 161 174 168 183 162 156 151 146 160 163 158 157 158 168 177 176 177 170 174 171 163 155 156 154 152 144 146 172 171 207 238 214 261 286 294 295 288 292 296 294 296 293 295 294 294 308 312 313 315 315 317 304 300 296 290 291 293 294 296 292 288 282 277 279 280 280 278 286 293 292 285 276 272 270 266 258 261
229 235 244 228 199 163 154 160 164 176 180 157 154 154 150 155 163 159 159 168 173 189 182 180 182 176 173 166 160 154 157 159 157 161 165 176 174 209 218 211 266 287 291 278 292 292 277 276 283 287 287 294 293 306 311 313 314 312 311 306 299 293 290 285 278 284 284 281 268 264 274 277 278 278 281 286 289 292 287 281 279 278 277 272 268
211 207 223 220 182 159 152 145 157 176 178 155 153 152 152 168 167 170 172 173 195 191 183 188 182 167 164 156 154 158 157 162 167 166 164 176 196 204 210 218 233 245 269 284 292 288 279 274 266 277 296 300 296 301 307 308 310 310 310 302 297 289 280 281 272 275 277 270 264 260 275 279 286 289 292 294 294 294 288 282 280 275 272 261 266
218 231 209 169 142 122 142 163 184 193 158 157 156 160 170 169 176 163 177 195 201 196 183 164 151 154 151 154 159 161 164 166 167 160 165 177 180 179 215 239 264 273 279 291 282 275 280 281 279 284 287 292 293 288 295 301 306 307 308 304 298 296 291 281 274 273 285 279 266 261 263 283 294 295 295 296 296 292 288 282 277 273 271 276 270
197 205 163 153 177 180 187 192 195 163 156 162 158 159 177 179 166 175 199 209 192 158 161 160 147 151 156 158 160 164 165 170 162 159 157 159 172 202 231 259 281 293 289 290 281 274 276 281 285 289 288 288 276 284 287 298 304 306 306 306 295 279 274 273 268 271 275 290 283 256 269 287 299 298 296 294 291 287 289 290 289 284 280 280 287
185 175 170 171 176 199 204 204 172 163 165 164 167 173 184 167 172 198 213 184 148 161 155 154 158 161 161 159 160 160 157 159 155 139 151 182 197 173 221 243 257 271 282 280 281 280 280 285 292 289 283 280 283 284 283 291 298 304 306 306 304 297 300 302 302 301 296 285 278 279 249 292 300 298 294 290 290 293 299 303 301 301 300 304 308
159 190 202 171 179 198 210 203 171 166 171 176 172 179 177 178 187 214 186 147 158 154 156 155 156 160 164 164 163 159 162 159 153 161 152 182 196 206 239 222 226 252 261 275 275 281 291 299 301 291 279 273 272 273 284 287 295 307 309 312 310 309 309 307 303 287 286 297 297 297 297 296 296 299 304 308 311 313 316 307 305 305 306 310 317
213 199 188 181 197 204 211 194 174 179 178 180 178 183 184 181 212 192 137 146 150 157 152 156 163 166 160 164 166 164 164 164 159 152 149 173 216 222 229 226 218 227 248 270 278 287 300 305 308 300 279 273 276 279 275 287 304 311 315 315 314 312 312 307 303 306 312 312 314 306 303 309 313 312 310 309 309 309 306 307 309 310 314 322 330
212 216 191 189 199 204 204 199 193 185 190 190 195 185 185 201 212 141 165 159 160 156 161 167 169 167 167 165 161 169 167 167 166 152 159 181 219 201 228 237 208 233 241 263 275 276 283 292 297 294 299 296 293 292 294 298 310 316 317 316 315 315 315 320 323 320 317 310 310 313 314 314 315 316 315 314 313 311 310 311 314 318 324 323 319
233 205 189 203 212 212 190 207 210 198 197 198 202 194 188 214 160 160 160 163 156 160 168 173 167 168 172 163 168 175 173 174 167 170 176 185 194 203 209 231 220 235 229 242 267 266 270 273 276 282 293 296 286 289 298 300 305 304 301 304 308 313 321 326 324 319 318 318 317 319 320 320 319 319 322 321 314 314 313 316 319 322 319 314 313
218 226 187 191 189 200 211 209 217 207 201 205 203 212 216 144 160 160 159 161 165 168 168 164 174 172 168 174 175 181 179 177 176 176 186 186 191 193 205 229 225 228 235 233 249 248 259 258 255 276 285 283 286 291 281 302 310 297 295 290 290 309 331 327 328 326 322 325 329 327 323 324 327 326 328 325 322 321 321 321 325 326 327 326 324
223 218 181 188 189 210 218 214 224 215 200 203 206 214 207 168 162 159 159 159 169 176 174 178 174 174 174 176 179 171 170 181 190 175 187 200 208 196 198 213 201 205 206 231 219 233 236 247 253 264 266 272 283 261 289 307 286 269 279 297 309 332 329 332 341 322 349 351 336 332 332 333 332 334 333 333 331 331 327 327 326 327 323 321 316
209 211 187 197 203 211 220 215 229 212 186 198 210 210 190 182 175 162 161 168 175 176 165 164 169 165 178 171 179 181 185 183 193 199 217 204 190 193 212 231 225 193 208 223 233 236 242 239 244 254 266 271 255 284 298 293 299 309 311 313 331 331 326 353 331 342 16 354 335 331 334 338 341 339 336 332 332 332 327 323 320 319 321 320 316
229 197 197 209 210 211 217 219 231 203 190 200 206 200 190 186 171 171 171 176 171 163 167 176 173 179 175 174 177 189 182 185 192 208 223 264 239 231 220 211 242 228 232 236 229 221 227 237 250 252 236 246 268 284 300 306 309 308 311 318 322 324 329 334 329 2 15 348 327 325 324 328 331 335 333 331 330 330 327 327 323 325 324 321 322
218 194 215 212 219 216 222 228 230 198 199 200 201 194 187 187 178 178 180 177 162 166 177 178 172 192 185 181 176 171 183 181 191 183 199 233 312 278 255 248 248 248 254 256 256 257 257 252 251 258 267 281 291 300 304 305 305 307 314 321 324 328 336 334 335 12 6 351 326 329 323 321 324 323 321 322 320 320 320 319 319 318 316 320 322